Flag for Maldives Weather past 2 weeks in Addu City, Maldives

Now
88 °F

Passing clouds.


Feels Like: 100 °F
Forecast: 80 / 83 °F
Wind: 8 mph from Southwest

Location: Male Airport

Current Time: Jul 23, 2014 at 12:30:07 PM

Latest Report: Jul 23, 2014 at 10:00 AM


Visibility: N/A

Pressure: 29.89 "Hg

Humidity: 70%

Dew point: 77 °F

Location of Addu CityLocation

Historic Weather in Addu City — Graph

°F

Addu City temperature yesterday

Maximum temperature yesterday: 90 °F (at 12:00 PM)
Minimum temperature yesterday: 84 °F (at 12:00 AM)
Average temperature yesterday: 86 °F

Past Weeks' High & Low Weather Summary

 TemperatureHumidityPressure
High90 °F (Jul 16, 1:00 PM)100% (Jul 9, 7:00 PM)29.95 "Hg (Jul 9, 7:00 PM)
Low75 °F (Jul 9, 7:00 PM)66% (Jul 20, 11:00 AM)29.77 "Hg (Jul 14, 3:00 PM)
Average85 °F77%29.85 "Hg
* Reported Jul 8 10:00 AM — Jul 23 10:00 AM, Addu City, Weather by CustomWeather, © 2014

Note: Actual official high and low records may vary slightly from our data, if they occured in-between our weather recording intervals... More about our weather records

Advertising

Addu City weather history for previous 24 hours

 ConditionsComfort  
Time TempWeatherWind HumidityBarometerVisibility
10:00 AM
Jul 23
88 °FPassing clouds.8 mph70%29.89 "HgN/A
9:00 AM86 °FPassing clouds.8 mph75%29.89 "HgN/A
8:00 AM86 °FPassing clouds.6 mph75%29.86 "HgN/A
7:00 AM84 °FPassing clouds.7 mph79%29.86 "HgN/A
6:00 AM84 °FPassing clouds.7 mph79%29.83 "HgN/A
4:00 AM84 °FPassing clouds.7 mph79%29.83 "HgN/A
9:00 PM
Jul 22
86 °FPassing clouds.9 mph75%29.89 "HgN/A
8:00 PM86 °FPassing clouds.9 mph75%29.89 "HgN/A
7:00 PM86 °FPassing clouds.8 mph70%29.86 "HgN/A
6:00 PM86 °FPassing clouds.9 mph75%29.83 "HgN/A
5:00 PM88 °FPassing clouds.8 mph70%29.80 "HgN/A
4:00 PM88 °FPassing clouds.9 mph70%29.80 "HgN/A
3:00 PM90 °FPassing clouds.9 mph71%29.80 "HgN/A
2:00 PM90 °FPassing clouds.10 mph67%29.83 "HgN/A
1:00 PM90 °FPassing clouds.8 mph71%29.83 "HgN/A
12:00 PM90 °FPassing clouds.8 mph67%29.86 "HgN/A
Weather by CustomWeather, © 2014

See weather overviewHow to use our weather pages